Ketchikan, AK

3:07 AM AKST on January 21, 2019 (GMT -0900)
Ketchikan International

Weather History for PAKT - November, 2018

Change the Weather History Date:

Tuesday, November 27, 2018

  Actual Average Record
Temperature  
Mean Temperature 45 °F -  
Max Temperature 46 °F 43 °F 61 °F (1959)
Min Temperature 44 °F 33 °F 8 °F (2006)
Degree Days  
Heating Degree Days 20    
Moisture  
Dew Point 44 °F    
Average Humidity 94    
Maximum Humidity 100    
Minimum Humidity 90    
Precipitation  
Precipitation 0.26 in - - ()
Sea Level Pressure  
Sea Level Pressure 29.30 in    
Wind  
Wind Speed 3 mph (South)    
Max Wind Speed 7 mph    
Max Gust Speed -    
Visibility 9 miles    
Events Rain    
Averages and records for this station are not official NWS values.
T = Trace of Precipitation, MM = Missing Value Source: NWS Daily Summary

Daily Weather History Graph

Daily Weather History Graph

Search for Another Location

Airport or City:

Astronomy

Nov. 27, 2018 Rise Set
Actual Time 7:43 AM AKST 3:25 PM AKST
Civil Twilight 6:59 AM AKST 4:08 PM AKST
Nautical Twilight 6:13 AM AKST 4:55 PM AKST
Astronomical Twilight 5:29 AM AKST 5:39 PM AKST
Moon 8:25 PM AKST (11/27) 11:58 AM AKST (11/27)
Length of Visible Light 9h 08m
Length of Day
7h 41m
Waning Gibbous, 74% of the Moon is Illuminated
Nov 27
Waning Gibbous
Nov 29
Last Quarter
Dec 6
New
Dec 15
First Quarter
Dec 22
Full

Hourly Weather History & Observations

Time (AKST) Temp. Windchill Dew Point Humidity Pressure Visibility Wind Dir Wind Speed Gust Speed Precip Events Conditions
12:31 AM 46.0 °F 43.9 °F 45.0 °F 96% 29.26 in 9.0 mi SE 4.6 mph - 0.03 in Rain Light Rain
12:53 AM 46.0 °F 43.9 °F 45.0 °F 96% 29.26 in 9.0 mi SE 4.6 mph - 0.04 in Rain Light Rain
1:27 AM 46.0 °F 44.8 °F 45.0 °F 96% 29.27 in 10.0 mi SSE 3.5 mph - 0.03 in Rain Light Rain
1:33 AM 46.0 °F 43.9 °F 45.0 °F 96% 29.27 in 10.0 mi SSE 4.6 mph - 0.03 in Rain Light Rain
1:40 AM 46.0 °F 43.9 °F 44.1 °F 93% 29.27 in 10.0 mi SSE 4.6 mph - 0.03 in Rain Light Rain
1:53 AM 46.0 °F 44.8 °F 44.1 °F 93% 29.27 in 10.0 mi SSE 3.5 mph - 0.03 in Rain Light Rain
1:56 AM 46.0 °F 44.8 °F 44.1 °F 93% 29.27 in 10.0 mi SSE 3.5 mph - 0.00 in Rain Light Rain
2:13 AM 46.0 °F 44.8 °F 44.1 °F 93% 29.27 in 10.0 mi SSE 3.5 mph - 0.01 in Rain Light Rain
2:53 AM 46.0 °F 43.1 °F 44.1 °F 93% 29.26 in 6.0 mi SSE 5.8 mph - 0.03 in Rain Light Rain
3:25 AM 46.0 °F - 45.0 °F 96% 29.26 in 4.0 mi Calm Calm - 0.03 in Rain Light Rain
3:51 AM 46.4 °F 44.3 °F 44.6 °F 93% 29.25 in 8.0 mi SSE 4.6 mph - 0.04 in Rain Light Rain
3:53 AM 46.0 °F 43.9 °F 44.1 °F 93% 29.26 in 9.0 mi SSE 4.6 mph - 0.04 in Rain Light Rain
4:53 AM 46.9 °F - 45.0 °F 93% 29.26 in 3.0 mi SSE 3.5 mph - 0.01 in Rain Light Rain
5:53 AM 46.0 °F 44.8 °F 45.0 °F 96% 29.26 in 4.0 mi ESE 3.5 mph - 0.01 in   Overcast
6:04 AM 46.4 °F - 44.6 °F 93% 29.25 in 3.0 mi Calm Calm - N/A Rain Light Rain
6:53 AM 46.4 °F - 44.6 °F 93% 29.26 in 3.0 mi Calm Calm - N/A   Overcast
7:51 AM 46.4 °F - 44.6 °F 93% 29.27 in 10.0 mi Calm Calm - N/A   Overcast
7:53 AM 46.9 °F - 45.0 °F 93% 29.27 in 10.0 mi Calm Calm - N/A   Overcast
8:53 AM 46.0 °F - 45.0 °F 96% 29.28 in 10.0 mi Calm Calm - N/A   Overcast
9:53 AM 46.9 °F - 45.0 °F 93% 29.28 in 10.0 mi Calm Calm - N/A   Overcast
10:51 AM 46.4 °F 44.3 °F 44.6 °F 93% 29.27 in 10.0 mi NW 4.6 mph - N/A   Scattered Clouds
10:53 AM 46.4 °F 44.3 °F 44.6 °F 93% 29.27 in 10.0 mi NNW 4.6 mph - N/A   Scattered Clouds
11:53 AM 46.4 °F 42.9 °F 44.6 °F 93% 29.28 in 10.0 mi NW 6.9 mph - N/A   Scattered Clouds
12:53 PM 46.4 °F 43.5 °F 44.6 °F 93% 29.28 in 10.0 mi NW 5.8 mph - N/A   Scattered Clouds
1:53 PM 46.9 °F - 45.0 °F 93% 29.29 in 10.0 mi NW 3.5 mph - N/A   Scattered Clouds
2:53 PM 46.9 °F - 44.1 °F 90% 29.30 in 10.0 mi Calm Calm - N/A   Scattered Clouds
3:53 PM 45.0 °F - 43.0 °F 93% 29.30 in 10.0 mi Calm Calm - N/A   Overcast
4:51 PM 44.6 °F - 42.8 °F 93% 29.31 in 10.0 mi Calm Calm - N/A   Overcast
4:53 PM 44.1 °F - 43.0 °F 96% 29.31 in 10.0 mi Calm Calm - N/A   Overcast
5:51 PM 44.6 °F - 42.8 °F 93% 29.32 in 10.0 mi Calm Calm - N/A   Overcast
5:53 PM 45.0 °F 43.5 °F 43.0 °F 93% 29.32 in 10.0 mi WNW 3.5 mph - N/A   Overcast
6:53 PM 45.0 °F 42.6 °F 44.1 °F 97% 29.33 in 10.0 mi NW 4.6 mph - N/A   Overcast
7:51 PM 44.6 °F 43.1 °F 44.6 °F 100% 29.34 in 10.0 mi WNW 3.5 mph - N/A   Overcast
7:53 PM 44.6 °F - 44.6 °F 100% 29.34 in 10.0 mi Calm Calm - N/A   Overcast
8:51 PM 46.4 °F - 44.6 °F 93% 29.36 in 8.0 mi Calm Calm - 0.01 in Rain Light Rain
8:53 PM 46.0 °F - 44.1 °F 93% 29.36 in 8.0 mi Calm Calm - 0.01 in Rain Light Rain
9:53 PM 45.0 °F - 43.0 °F 93% 29.38 in 4.0 mi Calm Calm - 0.04 in Rain Light Rain
10:53 PM 45.0 °F - 44.1 °F 97% 29.39 in 9.0 mi Calm Calm - 0.03 in Rain Light Rain
11:32 PM 45.0 °F - 44.1 °F 97% 29.40 in 10.0 mi Calm Calm - 0.02 in Rain Light Rain
11:53 PM 45.0 °F - 44.1 °F 97% 29.41 in 10.0 mi Calm Calm - 0.02 in Rain Light Rain